Regional Weather Roundup
Issued by NWS

Home | Current Version | Previous Version | Text Only | Print | Product List | Glossary On
Versions: 1 2 3 4 5 6 7 8 9 10 11 12 13 14 15 16 17 18 19 20 21 22 23 24 25 26 27 28 29 30 31 32 33 34 35 36 37 38 39 40 41 42 43 44 45 46 47 48 49 50
000
ASUS44 KJAN 081110
RWRMS

MISSISSIPPI HOURLY WEATHER ROUNDUP
NATIONAL WEATHER SERVICE JACKSON MS
500 AM CST MON FEB 08 2016

NOTE: "FAIR: INDICATES FEW OR NO CLOUDS BELOW 12,000 FEET WITH NO
SIGNIFICANT WEATHER AND/OR OBSTRUCTIONS TO VISIBILITY.

MSZ001>002-007>008-010>013-018>021-025>028-034>036-081200-
NORTHWEST MISSISSIPPI

CITY           SKY/WX    TMP DP  RH WIND       PRES   REMARKS
CLEVELAND      PTSUNNY   42  36  77 NW6       29.98R
GREENWOOD      CLOUDY    45  32  60 W3        29.97S
GREENVILLE     CLOUDY    44  31  60 W10       29.98S
OLIVE BRANCH   CLEAR     39  25  56 W18G32    29.93S WCI  30
OXFORD         FAIR      43  25  49 NW9       29.94S
TUNICA         SUNNY     43  23  45 NW18G24   29.97R
$$

MSZ003>006-009-014>017-022>024-029>033-037>039-081200-
NORTHEAST MISSISSIPPI

CITY           SKY/WX    TMP DP  RH WIND       PRES   REMARKS
COLUMBUS AFB   PTCLDY    42  33  73 W8        29.91S
CORINTH        FAIR      43  28  56 W8        29.87F
GOLDN TRIANGLE CLOUDY    45  28  53 W6        29.92R
STARKVILLE     CLOUDY    45  32  61 W6        29.93
TUPELO         CLOUDY    47  29  49 W8        29.91S
$$

MSZ040-058-081200-
CENTRAL MISSISSIPPI

CITY           SKY/WX    TMP DP  RH WIND       PRES   REMARKS
JACKSON INTL   PTCLDY    53  34  48 SW6       30.00F
JACKSON HAWKNS PTCLDY    43  35  73 SW5       29.99F
MERIDIAN KEY   CLEAR     41  32  70 SW6       29.98F
MERIDIAN NAS   CLEAR     42  31  64 SW9       29.96F
VICKSBURG      PTCLDY    44  35  70 W6        30.04R
$$

MSZ059>079-081200-
SOUTH MISSISSIPPI

CITY           SKY/WX    TMP DP  RH WIND       PRES   REMARKS
BROOKHAVEN     FAIR      43  39  87 SW8       30.04F
HATTIESBURG    PTCLDY    45  36  70 W8        30.03F
MCCOMB         PTCLDY    39  37  92 W5        30.05S
NATCHEZ        CLEAR     43  36  75 W7        30.07R
PINE BELT      PTCLDY    41  34  75 W3        30.02S
$$

MSZ080>082-081200-
COASTAL MISSISSIPPI

CITY           SKY/WX    TMP DP  RH WIND       PRES   REMARKS
BILOXI         CLEAR     45  38  76 W7        30.05S
PASCAGOULA     CLEAR     43  36  76 W3        30.05F
GULFPORT       CLEAR     42  35  76 W5        30.05F
$$



USA.gov is the U.S. government's official web portal to all federal, state and local government web resources and services.